User: anonymous   Login
Location: Goheenville
(40.9070°N, 79.3720°W)
Time: 14:49:20
(UTC-05:00)
Language:

Cosmos 1633 - Orbit

View from above orbital plane
View from above orbital plane
View from above satellite
View from above satellite

Ground track
Ground track

The orbit data is extracted from the following two-line orbital elements,

1 15592U 85020A   17348.90616860 +.00001391 +00000-0 +47862-4 0  9991
2 15592 082.5373 138.1750 0011984 256.4011 103.5894 15.29120613791624
Epoch (UTC): 14 December 2017 21:44:52
Eccentricity: 0.0011984
inclination: 82.5373°
perigee height: 470 km
apogee height: 486 km
right ascension of ascending node: 138.1750°
argument of perigee: 256.4011°
revolutions per day: 15.29120613
mean anomaly at epoch: 103.5894°
orbit number at epoch: 79162

The dashed part of the orbit path shows where the satellite is in the earth's shadow,  

DLR